Location: Eurasberg
(48.3353°N, 11.0839°E)
Time: 13:56:25
(UTC+00:00)

Timation 1 Rocket - Pass Details

Date: 18 April 2026
Orbit: 895 x 908 km, 70.0° (Epoch: 14 May)

Event Time Altitude Azimuth Distance (km) Brightness Sun altitude
Exits shadow 23:31:51 36° 86° (E) 1,402 5.3 -30.4°
Drops below altitude 10° 23:36:22 10° 42° (NE) 2,601 7.3 -30.4°
Sets 23:39:01 0° 35° (NE) 3,547 8.3 -30.3°
